Showing default

FLOCK 4BE 1, 60518

Orbit data source: Space-Track

FLOCK 4BE 1, 60518 is a payload satellite owned by Planet (US) in SSO that was launched on Fri, 16 Aug 2024 UTC via an FALCON 9 launch vehicle from the Air Force Western Test Range (AFWTR). Payload-class satellites include a variety of spacecraft equipped with specific instruments for various scientific and technological missions. These include communications satellites like Starlink; space stations such as the ISS; scientific satellites like the Hubble; Earth observation satellites from companies like Planet Labs, Umbra, and HawkEye 360; GPS; miniature CubeSats for education and research; and military/defense satellites.

Loading next visibility...
Identifier
60518, 2024-149BC
Orbit
SSO
Country
Flag of USUS
Related business
Manufacturer
Planet
Mission
Operational Commercial Imaging
Bus & Motor
CUBESAT 3U, Unknown motor
Mass
5.7 kg wet, 5.7 kg dry
Launch date (UTC)
2024-08-16 (1 year ago)
Launch vehicle
FALCON 9
Launch site
Air Force Western Test Range (AFWTR)
Object type
Payload
Rocket body
Debris
Shape & HBR
Box + 2 Pan, 1.0 m
Radar Cross Section
0.072 m², Medium (>0.1 m² and < 1m²)

Expand to show TLE details & history
Last TLE update: 8 hours ago

TLE from 8 hours ago
0 FLOCK 4BE 1
1 60518U 24149BC  25304.19821524  .00021447  00000-0  66691-3 0  9995
2 60518  97.3999  22.7155 0005050  46.4840 313.6822 15.33333152 67171
Epoch: 2025-10-31T04:45Z
TLE epoch observation values (Epoch: 2025-10-31T04:45:25.796Z)
Latitude
0.00003°
Longitude
-88.38808°
Altitude
466.598 km
Speed
7.634 km/s
True Right ascension
01h 30m 51s
True Declination
0° 00' 00"
Sunlit
Object was in full shadow at epoch
Visualization orbit readout
Latitude
Unknown
Longitude
Unknown
Altitude
Unknown
Speed
Unknown
Apparent Right ascension
Unknown
Apparent Declination
Unknown
Sunlit
N/A
Visualization observer readout
Local Sidereal Time
08:03:31
Azimuth
Unknown
Elevation
Unknown
Doppler factor
Unknown
Orbital elements
Apogee altitude
466.278 km
Perigee altitude
459.369 km
Semi-major axis
6,840.961 km
Eccentricity
0.00051
Inclination
97.3999°
RAAN
22.7155°
Arg. of periapsis
46.484°
True anomaly
313.64033°
Mean anomaly
313.6822°
Eccentric anomaly
313.66127°
Mean motion
3.8359 °/min
Orbital period
93.85 mins
BSTAR
0.00066691
Loading maneuver chart data...
Computing Atmospheric mass density...
Loading historical data...
Loading historical data...
Loading historical data...
Loading historical data...
Loading historical data...
Loading historical data...
Loading historical data...

Documentation

Showing up to 5 results
|